Location: Cheching
(60.0667°N, 164.2167°W)
Time: 21:54:07
(UTC+00:00)

NOAA 15 - Pass Details

Date: 25 January 2021
Orbit: 798 x 812 km, 98.7° (Epoch: 07 March)

Event Time Altitude Azimuth Distance (km) Brightness Sun altitude
Rises 04:01:05 0° 129° (SE) 3,311 7.5 -8.2°
Reaches altitude 10° 04:03:32 10° 122° (ESE) 2,386 6.7 -8.5°
Maximum altitude 04:08:21 38° 56° (NE) 1,221 5.1 -9.0°
Drops below altitude 10° 04:13:13 10° 350° (N) 2,407 7.0 -9.6°
Sets 04:15:42 0° 342° (NNW) 3,344 7.8 -9.9°
